Location: Newark
(13.8625°N, 100.5144°E)
Time: 15:20:11
(UTC+00:00)

LightSail 2 - Pass Details

Date: 18 May 2021
Orbit: 685 x 700 km, 24.0° (Epoch: 11 June)

Event Time Altitude Azimuth Distance (km) Brightness Sun altitude
Exits shadow 21:09:21 66° 227° (SW) 749 4.9 -23.2°
Maximum altitude 21:09:39 68° 203° (SSW) 739 5.0 -23.1°
Drops below altitude 10° 21:14:38 10° 120° (ESE) 2,129 8.0 -22.0°
Sets 21:17:04 0° 118° (ESE) 3,043 8.9 -21.5°
